Location: Peebles
(55.6412°N, 3.1714°W)
Time: 10:15:16
(UTC+01:00)

NOSS 3-3 (A) - Pass Details

Date: 29 January 2022
Orbit: 789 x 1423 km, 63.4° (Epoch: 23 April)

Event Time Altitude Azimuth Distance (km) Brightness Sun altitude
Rises 06:23:12 0° 186° (S) 3,370 6.9 -15.1°
Reaches altitude 10° 06:25:49 10° 175° (S) 2,499 6.3 -14.7°
Maximum altitude 06:30:43 29° 116° (ESE) 1,632 6.0 -14.0°
Drops below altitude 10° 06:36:12 10° 59° (ENE) 2,830 7.1 -13.3°
Sets 06:39:20 0° 50° (NE) 3,898 7.7 -12.8°
